Find Starlink 30493

NORAD ID: 58116 Int'l Des: 2023-161 Owner: SPXS Country: US Constellation: starlink operational
LEOCIRCULAR

現在のビュー

3D地球を読み込み中...

About Starlink 30493

Starlink 30493 (NORAD 58116) is a starlink constellation satellite (v2 mini) launched Oct 21, 2023 by SPXS of US. It operates in LEO, CIRCULAR orbit with a mass of 730.00 kg.

Starlink 30493について

説明を読み込み中...

次回通過

Passes for default location (London). Set your location on the main map for personalized predictions.

高度履歴

Loading altitude history...

軌道要素

1 58116U 23161V 26173.35317982 .00003354 00000-0 12531-3 0 9991
2 58116 53.1597 39.5534 0000715 94.8698 265.2384 15.30197095150443
Epoch: Jun 22, 2026 • Age: 31 hours

現在のステータス

高度 481.9 km
速度 7.62 km/s
衛星直下点 -22.56°S, 131.89°W
打ち上げ日 Oct 21, 2023
運用期間 2.6 years
タイプ internet

技術仕様

分類 Payload
質量 730.00 kg
乾燥質量 700.00 kg
総質量 730.00 kg
長さ 0.30 m
直径 4.10 m
スパン 29.00 m
形状 Box + pan
製造者 SPXS
バスタイプ Starlink V2M
フェーズステータス In Orbit
所有者/国 SPXS/US

Most Searched